[[{"header":{"parameterUnit":"m.s-1","parameterCategory":1,"la1":30.2992,"la2":30.254,"lo1":-89.0895,"lo2":-89.0443,"dy":0.0025,"dx":0.0025,"nx":19,"ny":19,"refTime":"2026-03-13T03:00:00:Z","depth":0,"parameterNumber":2,"parameterNumberName":"U-component_of_WINDS"},"data":[0,0,0,-0.6721,-0.6719,-0.6625,-0.6625,-0.6521,-0.652,0,0,0,0,0,0,0,0,0,0,0,-0.6758,-0.6758,-0.6721,-0.6719,-0.6625,-0.6625,-0.6521,-0.652,0,0,0,0,0,0,0,0,0,0,0,-0.6759,-0.6758,-0.6758,-0.6719,-0.6625,-0.6625,-0.6521,-0.6586,0,0,0,0,0,0,0,0,0,0,-0.6675,-0.6719,-0.6758,-0.6758,-0.6718,-0.6625,-0.6624,-0.6589,-0.6582,-0.6571,0,-0.6563,0,-0.654,-0.6514,-0.6514,0,0,0,-0.6712,-0.6725,-0.6691,-0.6758,-0.6717,-0.6625,-0.6665,-0.6585,-0.6577,-0.6562,-0.6561,-0.6557,-0.6538,-0.6514,-0.6513,-0.6472,-0.6472,0,0,-0.6717,-0.6747,-0.6696,-0.6686,-0.6701,-0.6668,-0.6663,-0.658,-0.6582,-0.6561,-0.6554,-0.6537,-0.6513,-0.6513,-0.6472,-0.6472,0,0,0,-0.6737,-0.6751,-0.6718,-0.6691,-0.6673,-0.6666,-0.6659,-0.6585,-0.6572,-0.6553,-0.6535,-0.6513,-0.6512,-0.6472,-0.6472,-0.6509,0,0,0,-0.6739,-0.6762,-0.6721,-0.6738,-0.6675,-0.6628,-0.6666,-0.6578,-0.6568,-0.6536,-0.6513,-0.6511,-0.6471,-0.6472,-0.6508,-0.6522,0,0,0,-0.6761,-0.6765,-0.6754,-0.674,-0.6701,-0.6628,-0.661,-0.6575,-0.6557,-0.6514,-0.6511,-0.6471,-0.6472,-0.6506,-0.6519,-0.652,0,0,0,-0.6793,-0.6788,-0.6756,-0.6743,-0.6702,-0.6652,-0.661,-0.6572,-0.6539,-0.6512,-0.6471,-0.6472,-0.6506,-0.6518,-0.6519,-0.6527,-0.6533,0,0,-0.6803,-0.679,-0.678,-0.6749,-0.6713,-0.6664,-0.6633,-0.6575,-0.6543,-0.6498,-0.6496,-0.6508,-0.6519,-0.652,-0.6555,-0.656,0,0,0,-0.6794,-0.6787,-0.6771,-0.6742,-0.6698,-0.6661,-0.6604,-0.6583,-0.6543,-0.6526,-0.6508,-0.6513,-0.6513,-0.6515,-0.6519,-0.6517,-0.6474,-0.6474,-0.6474,-0.6851,-0.6811,-0.6793,-0.6743,-0.6716,-0.6658,-0.6632,-0.6593,-0.656,-0.6557,-0.6544,-0.657,-0.6573,-0.6576,-0.6575,-0.6544,-0.6544,-0.6544,-0.6545,-0.6862,-0.6847,-0.6806,-0.6774,-0.6733,-0.6705,-0.665,-0.6628,-0.6597,-0.6576,-0.6573,-0.6554,-0.6583,-0.6579,-0.6547,-0.6546,-0.6546,-0.6546,-0.6546,-0.6895,-0.6881,-0.6856,-0.6811,-0.6781,-0.673,-0.6703,-0.6666,-0.6631,-0.6629,-0.6611,-0.661,-0.6606,-0.6623,-0.6623,-0.6623,-0.6623,-0.6623,-0.6623,-0.694,-0.691,-0.6891,-0.6846,-0.6823,-0.6789,-0.6732,-0.6709,-0.6674,-0.6649,-0.6649,-0.6618,-0.6593,-0.6588,-0.6625,-0.6624,-0.6624,-0.6624,-0.6624,-0.6967,-0.6955,-0.6926,-0.6904,-0.6848,-0.6822,-0.6775,-0.6732,-0.6707,-0.6695,-0.6665,-0.6653,-0.6636,-0.6633,-0.6628,-0.6673,-0.6673,-0.6673,-0.6673,-0.6995,-0.6984,-0.6947,-0.6914,-0.6877,-0.6833,-0.6803,-0.676,-0.6714,-0.6697,-0.6685,-0.6676,-0.6674,-0.6658,-0.6654,-0.665,-0.6699,-0.6699,-0.6699,-0.701,-0.6993,-0.6975,-0.6929,-0.6884,-0.6845,-0.6817,-0.6781,-0.6726,-0.6699,-0.6682,-0.6681,-0.6666,-0.6663,-0.6636,-0.663,-0.6621,0,0]},{"header":{"parameterUnit":"m.s-1","parameterCategory":1,"la1":30.2992,"la2":30.254,"lo1":-89.0895,"lo2":-89.0443,"dy":0.0025,"dx":0.0025,"nx":19,"ny":19,"refTime":"2026-03-13T03:00:00:Z","depth":0,"parameterNumber":3,"parameterNumberName":"V-component_of_WINDS"},"data":[0,0,0,1.9285,1.9284,1.9243,1.9242,1.9187,1.9186,0,0,0,0,0,0,0,0,0,0,0,1.9298,1.9298,1.9285,1.9284,1.9243,1.9242,1.9187,1.9186,0,0,0,0,0,0,0,0,0,0,0,1.9298,1.9298,1.9297,1.9284,1.9243,1.9242,1.9187,1.9219,0,0,0,0,0,0,0,0,0,0,1.9259,1.9272,1.9298,1.9297,1.9284,1.9243,1.9242,1.922,1.9217,1.9205,0,1.9197,0,1.9191,1.9182,1.9182,0,0,0,1.9283,1.9275,1.9264,1.9297,1.9283,1.9243,1.9261,1.9218,1.9214,1.92,1.9196,1.9194,1.919,1.9182,1.9182,1.9123,1.9123,0,0,1.9286,1.929,1.9266,1.9261,1.927,1.9262,1.926,1.9216,1.921,1.9196,1.9193,1.9189,1.9182,1.9181,1.9123,1.9123,0,0,0,1.9293,1.9292,1.9282,1.9263,1.9256,1.9261,1.9258,1.9212,1.9209,1.9192,1.9188,1.9181,1.9181,1.9123,1.9123,1.9116,0,0,0,1.9294,1.9296,1.9283,1.9285,1.9257,1.9234,1.9256,1.9212,1.9207,1.9189,1.9181,1.918,1.9124,1.9123,1.9117,1.9112,0,0,0,1.93,1.9297,1.9291,1.9285,1.9268,1.9235,1.9229,1.9211,1.9204,1.9182,1.918,1.9124,1.9123,1.9118,1.9113,1.9097,0,0,0,1.9308,1.9285,1.9291,1.9264,1.9268,1.9232,1.9229,1.9201,1.9181,1.9181,1.9124,1.9123,1.9118,1.9114,1.9098,1.9085,1.908,0,0,1.9281,1.9282,1.9265,1.927,1.9234,1.9238,1.92,1.9177,1.9169,1.9138,1.9137,1.9117,1.9113,1.9098,1.9053,1.9049,0,0,0,1.9258,1.9247,1.9236,1.9219,1.9202,1.9186,1.9169,1.916,1.9134,1.9155,1.9107,1.9105,1.9096,1.9089,1.9086,1.9077,1.912,1.9121,1.9121,1.9226,1.922,1.9192,1.9181,1.9164,1.9147,1.9131,1.9116,1.9114,1.9103,1.9093,1.9067,1.9059,1.9057,1.9048,1.9086,1.9086,1.9086,1.9086,1.9186,1.9167,1.9167,1.9139,1.9132,1.9108,1.909,1.909,1.9065,1.9074,1.9065,1.9074,1.9053,1.9045,1.9085,1.9086,1.9086,1.9086,1.9086,1.9163,1.9153,1.9145,1.9119,1.91,1.9089,1.9066,1.906,1.9054,1.9046,1.9034,1.9034,1.9033,1.9041,1.9041,1.9041,1.9041,1.9041,1.9041,1.9142,1.9133,1.9115,1.9096,1.9085,1.9068,1.9051,1.9038,1.9023,1.902,1.902,1.9017,1.9053,1.9061,1.9039,1.9039,1.904,1.904,1.904,1.9101,1.911,1.9083,1.9072,1.9049,1.9029,1.9023,1.8998,1.8987,1.8976,1.8976,1.9004,1.9003,1.9005,1.9012,1.8978,1.8978,1.8978,1.8978,1.9081,1.9081,1.9053,1.9035,1.9016,1.9008,1.8976,1.8962,1.8949,1.8941,1.8945,1.8955,1.8957,1.8955,1.8958,1.8965,1.8919,1.8919,1.8919,1.9055,1.9054,1.9028,1.9018,1.9,1.8984,1.8953,1.8931,1.8917,1.8917,1.8935,1.8937,1.8952,1.8957,1.8955,1.8961,1.8972,0,0]}]]